West Plains, MO

10:36 PM CST on November 21, 2017 (GMT -0600)
West Plains Municipal

Weather History for KUNO - February, 2012

Change the Weather History Date:

Saturday, February 18, 2012

  Actual Average Record
Temperature  
Mean Temperature 43 °F 38 °F  
Max Temperature 47 °F 50 °F 77 °F (1986)
Min Temperature 39 °F 27 °F -2 °F (1993)
Degree Days  
Heating Degree Days 22 26  
Month to date heating degree days 487 512  
Since 1 July heating degree days 2827 3216  
Cooling Degree Days 0 0  
Month to date cooling degree days 0 0  
Year to date cooling degree days 0 0  
Moisture  
Dew Point 33 °F    
Average Humidity 66    
Maximum Humidity 83    
Minimum Humidity 49    
Precipitation  
Precipitation 0.01 in 0.11 in 2.21 in (1951)
Month to date precipitation 2.24 1.80  
Year to date precipitation 4.82 4.52  
Sea Level Pressure  
Sea Level Pressure 30.07 in    
Wind  
Wind Speed 8 mph (NNE)    
Max Wind Speed 16 mph    
Max Gust Speed 20 mph    
Visibility 9 miles    
Events Rain    
T = Trace of Precipitation, MM = Missing Value Source: NWS Daily Summary

Daily Weather History Graph

Daily Weather History Graph

Search for Another Location

Airport or City:

Trip Planner

Search our weather history database for the weather conditions in past years. The results will help you decide how hot, cold, wet, or windy it might be!

Date:

Astronomy

Feb. 18, 2012 Rise Set
Actual Time 6:53 AM CST 5:50 PM CST
Civil Twilight 6:26 AM CST 6:16 PM CST
Nautical Twilight 5:56 AM CST 6:47 PM CST
Astronomical Twilight 5:26 AM CST 7:17 PM CST
Moon 4:29 AM CST (2/18) 2:51 PM CST (2/18)
Length of Visible Light 11h 50m
Length of Day
10h 57m
Waning Crescent, 11% of the Moon is Illuminated
Feb 18
Waning Crescent
Feb 21
New
Feb 29
First Quarter
Mar 8
Full
Mar 14
Last Quarter

Hourly Weather History & Observations

Time (CST) Temp. Windchill Dew Point Humidity Pressure Visibility Wind Dir Wind Speed Gust Speed Precip Events Conditions
12:53 AM 44.1 °F 39.5 °F 39.9 °F 85% 30.12 in 7.0 mi SSW 8.1 mph - 0.00 in   Overcast
1:53 AM 42.1 °F 40.2 °F 39.9 °F 92% 30.12 in 5.0 mi West 3.5 mph - 0.00 in Rain Light Rain
2:53 AM 43.0 °F 40.3 °F 39.9 °F 89% 30.08 in 6.0 mi North 4.6 mph - 0.01 in   Overcast
3:53 AM 46.0 °F 44.8 °F 41.0 °F 83% 30.05 in 8.0 mi North 3.5 mph - N/A   Overcast
4:53 AM 46.9 °F - 39.9 °F 77% 30.07 in 9.0 mi North 4.6 mph - N/A   Overcast
5:53 AM 45.0 °F 43.5 °F 39.9 °F 82% 30.06 in 8.0 mi NNE 3.5 mph - N/A   Overcast
6:53 AM 44.1 °F 40.8 °F 39.0 °F 82% 30.08 in 9.0 mi NE 5.8 mph - N/A   Overcast
7:53 AM 44.1 °F 39.5 °F 37.0 °F 76% 30.12 in 10.0 mi NE 8.1 mph - N/A   Overcast
9:53 AM 42.1 °F 36.6 °F 34.0 °F 73% 30.14 in 10.0 mi NNE 9.2 mph - N/A   Overcast
10:53 AM 42.1 °F 35.7 °F 33.1 °F 70% 30.13 in 10.0 mi NNE 11.5 mph - N/A   Overcast
11:53 AM 43.0 °F 38.2 °F 32.0 °F 65% 30.11 in 10.0 mi NE 8.1 mph - N/A   Overcast
12:53 PM 44.1 °F 38.1 °F 30.9 °F 60% 30.07 in 10.0 mi NE 11.5 mph - N/A   Overcast
1:53 PM 45.0 °F 40.1 °F 30.9 °F 58% 30.06 in 10.0 mi NE 9.2 mph - N/A   Overcast
2:53 PM 45.0 °F 39.3 °F 30.0 °F 56% 30.05 in 10.0 mi NE 11.5 mph - N/A   Overcast
3:53 PM 46.9 °F - 30.0 °F 52% 30.03 in 10.0 mi NNE 15.0 mph - N/A   Scattered Clouds
4:53 PM 46.0 °F 41.4 °F 28.9 °F 51% 30.04 in 10.0 mi NNE 9.2 mph - N/A   Overcast
5:53 PM 44.1 °F 39.5 °F 28.0 °F 53% 30.04 in 10.0 mi NE 8.1 mph - N/A   Scattered Clouds
6:53 PM 43.0 °F 38.8 °F 27.0 °F 53% 30.05 in 10.0 mi NE 6.9 mph - N/A   Mostly Cloudy
7:53 PM 42.1 °F 36.6 °F 26.1 °F 53% 30.05 in 10.0 mi NNE 9.2 mph - N/A   Mostly Cloudy
8:53 PM 41.0 °F 35.2 °F 25.0 °F 53% 30.07 in 10.0 mi NNE 9.2 mph - N/A   Overcast
9:53 PM 39.9 °F 33.4 °F 24.1 °F 53% 30.06 in 10.0 mi NNE 10.4 mph - N/A   Overcast
10:53 PM 39.9 °F 34.5 °F 25.0 °F 55% 30.05 in 10.0 mi NE 8.1 mph - N/A   Overcast
11:53 PM 39.0 °F 34.8 °F 26.1 °F 60% 30.06 in 10.0 mi NE 5.8 mph - N/A   Overcast